Regional Weather Roundup
Issued by NWS

Home | Current Version | Previous Version | Text Only | Print | Product List | Glossary On
Versions: 1 2 3 4 5 6 7 8 9 10 11 12 13 14 15 16 17 18 19 20 21 22 23 24 25 26 27 28 29 30 31 32 33 34 35 36 37 38 39 40 41 42 43 44 45 46 47 48 49 50
000
ASHW40 PHFO 280832
RWRHI

WEATHER ROUNDUP FOR HAWAII
NATIONAL WEATHER SERVICE HONOLULU HI
1000 PM HST WED JUL 27 2016

THIS IS AN AUTOMATED REPORT THAT HAS NOT BEEN QUALITY CONTROLLED.

NOTE..."FAIR" INDICATES FEW OR NO CLOUDS BELOW 12,000 FEET WITH NO
SIGNIFICANT WEATHER AND/OR OBSTRUCTIONS TO VISIBILITY.

* - THESE SITES REPORT LIMITED FIELDS

HIZ001>004-280900-
KAUAI-NIIHAU-

CITY           SKY/WX    TMP DP  RH WIND       PRES   REMARKS
LIHUE APT      CLOUDY    79  72  79 NE16      30.07S
PORT ALLEN*      N/A     81 N/A N/A NE22G29     N/A
POIPU*           N/A     79 N/A N/A NE10G22     N/A
PRINCEVILLE*     N/A     77 N/A N/A SE5         N/A
KOKOLE POINT*  NOT AVBL
MOLOAA DAIRY*    N/A     79  73  83 E6          N/A
WAIMEA HTS*    NOT AVBL
PUU OPAE*      NOT AVBL
PUU LUA*       NOT AVBL
MAKAHA RIDGE*    N/A     70  66  88 N1          N/A
$$

HIZ005>011-280900-
OAHU-

CITY           SKY/WX    TMP DP  RH WIND       PRES   REMARKS
HONOLULU       PTCLDY    80  67  64 E9        30.03R
KALAELOA       PTCLDY    78  67  68 E6        30.03R
KANEOHE MCB    PTCLDY    80  70  71 E12G23    30.03R
WHEELER FIELD  MOCLDY    77  68  74 VRB7      30.06R
BELLOWS*         N/A    N/A N/A N/A NE21G26     N/A
KAHUKU*          N/A    N/A N/A N/A VRB14G23    N/A
WHEELER*       NOT AVBL
WAIANAE HARBOR NOT AVBL
DILLINGHAM*      N/A     77  64  65 MISG        N/A
KAHUKU TRN*      N/A     75  70  83 W12G28      N/A
KAWAILOA*        N/A     73  66  78 NE5G26      N/A
KII*             N/A     79  72  78 E22G29      N/A
MAKUA RANGE*     N/A     79  64  61 W6G17       N/A
OAHU FOREST NW NOT AVBL
SCHOFIELD BRK*   N/A     75  66  73 MISG        N/A
SCHOFIELD S*   NOT AVBL
WAIANAE VLY*   NOT AVBL
KUAOKALA*      NOT AVBL
HONOULIUULI*   NOT AVBL
MOKUOLOE IS*   NOT AVBL
PALEHUA*       NOT AVBL
WAIAWA PHB*    NOT AVBL
$$

HIZ012>013-280900-
MOLOKAI-

CITY           SKY/WX    TMP DP  RH WIND       PRES   REMARKS
MOLOKAI AIRPT  CLEAR     79  69  71 NE16G28   30.04R
KALAUPAPA      NOT AVBL
MAKAPULAPAI*     N/A     79  70  73 E23G32      N/A
MOLOKAI 1*     NOT AVBL
PUU ALII*        N/A     61  60  98 NE3G13      N/A
$$

HIZ016-280900-
KAHOOLAWE-

CITY           SKY/WX    TMP DP  RH WIND       PRES   REMARKS
KAHOOLAWE*       N/A     72 N/A N/A E1          N/A
HAKIOAWA*        N/A     73  68  84 MISG      30.44S
HONOKANAIA*      N/A     78  67  69 NE15G29   29.95R
KANELOA*         N/A     75  68  78 E23G36    30.06S
KEALIALALO*    NOT AVBL
LUA MAKIKA*    NOT AVBL
$$

HIZ014>015-280900-
LANAI-

CITY           SKY/WX    TMP DP  RH WIND       PRES   REMARKS
LANAI CITY     MOCLDY    73  66  78 NE18      30.08R
LANAI 1*       NOT AVBL
$$

HIZ017>028-280900-
MAUI-

CITY           SKY/WX    TMP DP  RH WIND       PRES   REMARKS
KAHULUI        CLEAR     78  69  73 NE21G28   30.02R
KAPALUA-W MAUI NOT AVBL
HANA AIRPORT     N/A     77  72  83 E10       30.09S
HANA*            N/A     79 N/A N/A E5          N/A
HALEAKALA SUMM   N/A     46  32  57 E28G51      N/A
MAALAEA BAY*     N/A     79 N/A N/A N17G29      N/A
HALEAKALA*     NOT AVBL
KAUPO GAP*     NOT AVBL
KULA 1*          N/A     63  33  33 NE3G13      N/A
$$

HIZ023>026-280900-
BIG ISLAND OF HAWAII COAST AND LOWER SLOPES-

CITY           SKY/WX    TMP DP  RH WIND       PRES   REMARKS
KAILUA KONA    PTCLDY    80  68  66 E8        29.97R
HILO           PTCLDY    76  72  87 W5        30.07R
HONOKAA*         N/A     72 N/A N/A VRB1        N/A
KAWAIHAE MWT*    N/A     82 N/A N/A W3          N/A
KAWAIHAE*        N/A     82 N/A N/A NW2       29.97R
SOUTH POINT*     N/A     75 N/A N/A N24G36      N/A
UPOLU AIRPORT*   N/A    N/A N/A N/A NE20G29     N/A
KAMUELA*       NOT AVBL
HAKALAU*         N/A     46  43  87 W3          N/A
KALOKO-HONOKO*   N/A     79  68  69 SE3       29.97R
PALI 2*          N/A     68  59  73 S15G30      N/A
KEALAKOMO*       N/A     79  68  69 NE20G29     N/A
KAUPULEHU*     NOT AVBL
KAPAPALA*        N/A     65  64  95 NW5         N/A
LOWER KAHUKU*    N/A     64  63  94 N2G13       N/A
PUHE CS*         N/A     81  68  65 W2          N/A
PUHO CS*       NOT AVBL
PTA KEAMUKU*   NOT AVBL
WAIKOLOA*      NOT AVBL
$$

HIZ027>028-280900-
BIG ISLAND OF HAWAII INTERIOR AND SUMMMITS-

CITY           SKY/WX    TMP DP  RH WIND       PRES   REMARKS
BRADSHAW FIELD CLEAR     56  51  85 S16G26    30.35R
MK VISITOR CEN   N/A     52  27  37 NE17        N/A
MAUNA KEA*       N/A     30  23  74 SE26        N/A  WCI  16
MAUNA LOA*       N/A    N/A N/A N/A MISG        N/A
MAUNA LOA 1*   NOT AVBL
PTA KIPUKA*      N/A    N/A N/A N/A E15G25      N/A
PTA RANGE 17*    N/A     66  48  52 SE17G26     N/A
PTA WEST*        N/A     59  46  63 N3G18       N/A
NENE CABIN*      N/A    N/A N/A N/A NE8G20      N/A
AHUMOA*        NOT AVBL
PTA PORTABLE*  NOT AVBL
PUU MALI*        N/A    N/A N/A N/A SE15G26     N/A
$$

HIC003-280900-
NORTHWEST ISLANDS-

CITY           SKY/WX    TMP DP  RH WIND       PRES   REMARKS
MIDWAY ISLAND  PTCLDY    77  68  73 E12       30.11R
MIDWAY NOS*      N/A     79 N/A N/A MISG      30.09S
FRENCH FRIGATE NOT AVBL
$$

PHZ110>124-180-280900-
BUOY REPORTS

STATION/POSITION TIME  TEMP    WIND        PRES    WAVE   SWELL
                       AIR SEA DIR/SP/G            HT/PER HT/DIR
                 (UTC) (F)     (DEG/KT/KT) (MB)    (FT/S) (FT/D)
BUOY 51001       0800   81 82  110/ 10/ 14 1015.5R
BUOY 51101       0750   79 80   80/ 16/ 17 1018.4R   4/ 7   3/140
BUOY 51100       NOT AVBL
BUOY 51002       0750   82 82   70/ 16/ 19 1013.9R   6/ 8   3
BUOY 51003       0750   81 82   60/ 16/ 19 1014.8R   7/ 7   3/190
BUOY 51004       0750   80 81   70/ 17/ 19 1015.1R   7/ 8   3/170
BARBERS PT BUOY  NOT AVBL
WAIMEA BAY BUOY  0804      80                N/A     4/ 7
KAILUA BAY BUOY  0811      80                N/A     7/ 7   2/130
LANAI BUOY       0815      82                N/A     3/17   2/200
BARBERS PT 2     NOT AVBL
PAUWELA MAUI     0809      80                N/A     6/ 8
HILO             0812      80                N/A     6/ 8   2/ 90
KANEOHE BAY BUOY 0806      79                N/A     5/ 7
HANALEI KAUAI    NOT AVBL
KAHULUI HARBOR   0800   79 81   40/ 18/ 22 1017.0R
HONOLULU HARBOR  0800   80 80   60/  3/  7 1017.5R
KILO NALU        NOT AVBL
HILO HARBOR      0800   76 79  230/  3/  3 1017.8R
MOKUOLOE         0700   80 84   70/ 13/ 17 1017.3R
NAWILIWILI       0800      81                N/A
WHOTS BUOY       NOT AVBL
BUOY 51028       NOT AVBL
$$

......................KEY........................................
  SKY/WX - SKY CONDITIONS/PRESENT WEATHER
  TMP    - TEMPERATURE IN FAHRENHEIT
  DWPT   - DEWPOINT IN FAHRENHEIT
  RH     - RELATIVE HUMIDITY IN PERCENT
  WIND   - DIRECTION AND SPEED /MPH FOR ISLANDS...KTS FOR BUOYS/
  PRES   - MEAN SEA LEVEL PRESSURE IN INCHES OF HG
  VSB    - VISIBILITY IN MILES
  HX     - HEAT INDEX
  WCI    - WIND CHILL INDEX
  VRB    - VARIABLE WIND DIRECTION
  N/A    - NOT AVAILABLE




USA.gov is the U.S. government's official web portal to all federal, state and local government web resources and services.